OAL883 FIMP-FMMI

Flight info

Callsign OAL883
Flight time 1h 32m
Altitude 38000
Route RASMA UA400 TE
Aircraft A319/M-SDE3FGHIRWY/LB1

Departure

Time 2026-04-28 18:29
Airport Sir Seewoosagur Ramgoolam International Airport (FIMP)

Arrival

Time 2026-04-28 20:02
Airport Ivato International Airport (FMMI)
Time Latitude Longitude Altitude Speed Heading
2026-04-28 18:15 -20.43075 57.67638 186 ft 0 kts 207°
2026-04-28 18:19 -20.43059 57.67647 199 ft 4 kts 206°
2026-04-28 18:20 -20.43034 57.67659 203 ft 4 kts 202°
2026-04-28 18:20 -20.43009 57.67668 198 ft 4 kts 192°
2026-04-28 18:20 -20.42983 57.67670 203 ft 4 kts 158°
2026-04-28 18:20 -20.42972 57.67663 200 ft 0 kts 117°
2026-04-28 18:23 -20.42975 57.67670 197 ft 3 kts 116°
2026-04-28 18:24 -20.42988 57.67697 197 ft 6 kts 116°
2026-04-28 18:24 -20.43003 57.67729 186 ft 8 kts 116°
2026-04-28 18:24 -20.43025 57.67813 190 ft 10 kts 68°
2026-04-28 18:24 -20.42990 57.67872 190 ft 11 kts 94°
2026-04-28 18:25 -20.43027 57.67957 190 ft 14 kts 117°
2026-04-28 18:25 -20.43078 57.68064 186 ft 18 kts 117°
2026-04-28 18:25 -20.43136 57.68186 200 ft 20 kts 117°
2026-04-28 18:26 -20.43271 57.68467 179 ft 19 kts 117°
2026-04-28 18:26 -20.43335 57.68599 177 ft 20 kts 117°
2026-04-28 18:26 -20.43405 57.68744 175 ft 22 kts 117°
2026-04-28 18:26 -20.43471 57.68883 172 ft 19 kts 116°
2026-04-28 18:27 -20.43537 57.69022 169 ft 23 kts 117°
2026-04-28 18:27 -20.43617 57.69187 158 ft 22 kts 117°
2026-04-28 18:27 -20.43657 57.69302 148 ft 12 kts 72°
2026-04-28 18:27 -20.43619 57.69338 141 ft 3 kts 30°
2026-04-28 18:28 -20.43566 57.69368 135 ft 10 kts 27°
2026-04-28 18:28 -20.43512 57.69362 135 ft 9 kts 311°
2026-04-28 18:28 -20.43505 57.69350 136 ft 0 kts 302°
2026-04-28 18:28 -20.43496 57.69334 136 ft 17 kts 300°
2026-04-28 18:29 -20.43339 57.69007 156 ft 82 kts 297°
2026-04-28 18:29 -20.42980 57.68260 183 ft 144 kts 297°
2026-04-28 18:29 -20.42497 57.67269 764 ft 151 kts 299°
2026-04-28 18:29 -20.42006 57.66264 1512 ft 155 kts 302°
2026-04-28 18:30 -20.41491 57.65207 2181 ft 169 kts 302°
2026-04-28 18:30 -20.41118 57.64438 2482 ft 184 kts 301°
2026-04-28 18:30 -20.40263 57.62674 3219 ft 217 kts 301°
2026-04-28 18:30 -20.39536 57.61163 3839 ft 242 kts 300°
2026-04-28 18:31 -20.38731 57.59483 4459 ft 267 kts 299°
2026-04-28 18:31 -20.37866 57.57674 5413 ft 278 kts 299°
2026-04-28 18:31 -20.36985 57.55827 6558 ft 282 kts 299°
2026-04-28 18:31 -20.36091 57.53954 7644 ft 285 kts 298°
2026-04-28 18:32 -20.35185 57.52059 8714 ft 289 kts 298°
2026-04-28 18:32 -20.34265 57.50141 9798 ft 292 kts 299°
2026-04-28 18:32 -20.33316 57.48174 10479 ft 309 kts 298°
2026-04-28 18:32 -20.32121 57.46172 10836 ft 333 kts 306°
2026-04-28 18:33 -20.30736 57.44100 11221 ft 352 kts 306°
2026-04-28 18:33 -20.29438 57.41845 11768 ft 361 kts 296°
2026-04-28 18:33 -20.28593 57.39316 11924 ft 363 kts 283°
2026-04-28 18:33 -20.28297 57.36646 11959 ft 364 kts 271°
2026-04-28 18:34 -20.28324 57.33944 11961 ft 364 kts 270°
2026-04-28 18:34 -20.28342 57.31245 11961 ft 364 kts 270°
2026-04-28 18:34 -20.28352 57.28548 11961 ft 364 kts 270°
2026-04-28 18:34 -20.28364 57.25853 11955 ft 365 kts 270°
2026-04-28 18:35 -20.28380 57.23151 11956 ft 365 kts 270°
2026-04-28 18:35 -20.28396 57.20447 12009 ft 368 kts 270°
2026-04-28 18:35 -20.28410 57.17703 12709 ft 370 kts 270°
2026-04-28 18:35 -20.28421 57.14954 13492 ft 373 kts 270°
2026-04-28 18:36 -20.28429 57.12180 14191 ft 377 kts 270°
2026-04-28 18:36 -20.28436 57.09381 14890 ft 379 kts 270°
2026-04-28 18:36 -20.28445 57.06566 15609 ft 381 kts 270°
2026-04-28 18:36 -20.28453 57.03733 16329 ft 384 kts 269°
2026-04-28 18:37 -20.28461 57.00880 17025 ft 387 kts 269°
2026-04-28 18:37 -20.28471 56.98000 17775 ft 389 kts 269°
2026-04-28 18:37 -20.28480 56.95103 18463 ft 392 kts 269°
2026-04-28 18:37 -20.28485 56.92186 19093 ft 396 kts 270°
2026-04-28 18:38 -20.28490 56.89242 19719 ft 399 kts 270°
2026-04-28 18:38 -20.28495 56.86276 20349 ft 402 kts 270°
2026-04-28 18:38 -20.28501 56.83285 20958 ft 405 kts 270°
2026-04-28 18:38 -20.28508 56.80274 21565 ft 408 kts 270°
2026-04-28 18:39 -20.28515 56.77249 22143 ft 410 kts 270°
2026-04-28 18:39 -20.28521 56.74199 22699 ft 413 kts 270°
2026-04-28 18:39 -20.28525 56.71124 23253 ft 416 kts 270°
2026-04-28 18:39 -20.28527 56.68034 23743 ft 419 kts 270°
2026-04-28 18:40 -20.28528 56.64919 24174 ft 422 kts 269°
2026-04-28 18:40 -20.28530 56.61783 24580 ft 425 kts 269°
2026-04-28 18:40 -20.28534 56.58619 24987 ft 429 kts 269°
2026-04-28 18:40 -20.28536 56.55426 25377 ft 432 kts 269°
2026-04-28 18:41 -20.28536 56.52211 25752 ft 436 kts 269°
2026-04-28 18:41 -20.28531 56.48967 26131 ft 439 kts 268°
2026-04-28 18:41 -20.28527 56.45708 26496 ft 443 kts 268°
2026-04-28 18:41 -20.28526 56.42416 26864 ft 446 kts 268°
2026-04-28 18:42 -20.28527 56.39099 27227 ft 449 kts 268°
2026-04-28 18:42 -20.28530 56.35757 27579 ft 453 kts 268°
2026-04-28 18:42 -20.28530 56.32399 27924 ft 456 kts 267°
2026-04-28 18:42 -20.28526 56.29011 28255 ft 459 kts 267°
2026-04-28 18:43 -20.28520 56.25597 28577 ft 462 kts 267°
2026-04-28 18:43 -20.28392 56.22159 28890 ft 468 kts 273°
2026-04-28 18:43 -20.27749 56.18738 29204 ft 476 kts 283°
2026-04-28 18:43 -20.26559 56.15427 29504 ft 483 kts 292°
2026-04-28 18:44 -20.24909 56.12275 29802 ft 489 kts 297°
2026-04-28 18:44 -20.21502 56.05969 30304 ft 493 kts 293°
2026-04-28 18:44 -20.20223 56.02604 30619 ft 488 kts 283°
2026-04-28 18:45 -20.19456 55.99116 31000 ft 482 kts 274°
2026-04-28 18:45 -20.18997 55.95589 31393 ft 480 kts 273°
2026-04-28 18:45 -20.18542 55.92072 31804 ft 479 kts 273°
2026-04-28 18:45 -20.18084 55.88557 32213 ft 478 kts 273°
2026-04-28 18:46 -20.17626 55.85055 32649 ft 477 kts 273°
2026-04-28 18:46 -20.17168 55.81563 33095 ft 476 kts 272°
2026-04-28 18:46 -20.16709 55.78073 33555 ft 475 kts 272°
2026-04-28 18:46 -20.16251 55.74595 34027 ft 474 kts 272°
2026-04-28 18:47 -20.15797 55.71123 34467 ft 472 kts 272°
2026-04-28 18:47 -20.15347 55.67669 34946 ft 470 kts 272°
2026-04-28 18:47 -20.14896 55.64236 35428 ft 468 kts 272°
2026-04-28 18:47 -20.14446 55.60818 35913 ft 465 kts 272°
2026-04-28 18:48 -20.13999 55.57423 36396 ft 462 kts 272°
2026-04-28 18:48 -20.13554 55.54049 36875 ft 460 kts 272°
2026-04-28 18:48 -20.13109 55.50688 37355 ft 457 kts 272°
2026-04-28 18:48 -20.12654 55.47346 37800 ft 456 kts 272°
2026-04-28 18:49 -20.12189 55.44019 37924 ft 453 kts 273°
2026-04-28 18:49 -20.12030 55.42898 37940 ft 452 kts 273°
2026-04-28 18:49 -20.10773 55.34152 37945 ft 449 kts 273°
2026-04-28 18:50 -20.09835 55.27590 37945 ft 448 kts 273°
2026-04-28 18:50 -20.08911 55.21037 37948 ft 448 kts 273°
2026-04-28 18:51 -20.07988 55.14490 37942 ft 447 kts 273°
2026-04-28 18:51 -20.07052 55.07953 37943 ft 447 kts 273°
2026-04-28 18:52 -20.06116 55.01411 37951 ft 447 kts 273°
2026-04-28 18:52 -20.05173 54.94867 37947 ft 447 kts 273°
2026-04-28 18:53 -20.04227 54.88333 37956 ft 447 kts 273°
2026-04-28 18:53 -20.03286 54.81800 37956 ft 447 kts 273°
2026-04-28 18:54 -20.02345 54.75276 37956 ft 447 kts 273°
2026-04-28 18:54 -20.01398 54.68754 37949 ft 446 kts 274°
2026-04-28 18:55 -20.00601 54.63298 37955 ft 446 kts 273°
2026-04-28 18:55 -19.99498 54.55733 37956 ft 445 kts 273°
2026-04-28 18:56 -19.98550 54.49225 37955 ft 445 kts 274°
2026-04-28 18:56 -19.97594 54.42731 37958 ft 444 kts 274°
2026-04-28 18:57 -19.96640 54.36245 37962 ft 444 kts 274°
2026-04-28 18:57 -19.95683 54.29764 37960 ft 444 kts 274°
2026-04-28 18:58 -19.94885 54.24337 37949 ft 443 kts 274°
2026-04-28 18:58 -19.93768 54.16816 37951 ft 443 kts 274°
2026-04-28 18:59 -19.92808 54.10345 37954 ft 443 kts 274°
2026-04-28 18:59 -19.92003 54.04924 37955 ft 443 kts 274°
2026-04-28 19:00 -19.91043 53.98483 37945 ft 443 kts 274°
2026-04-28 19:00 -19.90077 53.91988 37949 ft 443 kts 274°
2026-04-28 19:01 -19.89109 53.85525 37951 ft 443 kts 274°
2026-04-28 19:01 -19.88130 53.79066 37949 ft 443 kts 274°
2026-04-28 19:02 -19.87149 53.72617 37923 ft 443 kts 275°
2026-04-28 19:02 -19.86174 53.66146 37920 ft 444 kts 275°
2026-04-28 19:03 -19.85189 53.59662 37925 ft 445 kts 275°
2026-04-28 19:03 -19.84205 53.53160 37928 ft 446 kts 275°
2026-04-28 19:04 -19.83218 53.46656 37927 ft 446 kts 275°
2026-04-28 19:04 -19.82217 53.40144 37930 ft 447 kts 275°
2026-04-28 19:05 -19.81212 53.33630 37934 ft 447 kts 275°
2026-04-28 19:05 -19.80217 53.27113 37938 ft 447 kts 275°
2026-04-28 19:06 -19.79389 53.21695 37937 ft 448 kts 275°
2026-04-28 19:06 -19.78212 53.14067 37942 ft 448 kts 275°
2026-04-28 19:07 -19.77209 53.07540 37944 ft 448 kts 275°
2026-04-28 19:07 -19.76198 53.01014 37947 ft 448 kts 275°
2026-04-28 19:08 -19.75182 52.94486 37944 ft 448 kts 275°
2026-04-28 19:08 -19.74158 52.87963 37946 ft 448 kts 275°
2026-04-28 19:09 -19.73138 52.81446 37950 ft 448 kts 275°
2026-04-28 19:09 -19.72128 52.74928 37944 ft 448 kts 275°
2026-04-28 19:10 -19.71108 52.68402 37947 ft 448 kts 276°
2026-04-28 19:10 -19.70078 52.61882 37948 ft 448 kts 276°
2026-04-28 19:11 -19.69044 52.55367 37951 ft 448 kts 276°
2026-04-28 19:11 -19.68013 52.48845 37947 ft 448 kts 276°
2026-04-28 19:12 -19.66983 52.42327 37950 ft 448 kts 276°
2026-04-28 19:12 -19.65949 52.35809 37952 ft 448 kts 276°
2026-04-28 19:13 -19.64909 52.29290 37952 ft 448 kts 276°
2026-04-28 19:13 -19.63869 52.22768 37949 ft 448 kts 276°
2026-04-28 19:14 -19.62832 52.16250 37952 ft 448 kts 276°
2026-04-28 19:14 -19.61787 52.09744 37952 ft 448 kts 276°
2026-04-28 19:15 -19.60737 52.03233 37946 ft 448 kts 276°
2026-04-28 19:15 -19.59856 51.97767 37947 ft 448 kts 276°
2026-04-28 19:16 -19.58631 51.90202 37948 ft 448 kts 276°
2026-04-28 19:16 -19.57573 51.83685 37954 ft 449 kts 276°
2026-04-28 19:17 -19.56521 51.77170 37956 ft 448 kts 276°
2026-04-28 19:17 -19.55465 51.70653 37957 ft 448 kts 276°
2026-04-28 19:18 -19.54400 51.64139 37956 ft 449 kts 276°
2026-04-28 19:18 -19.53340 51.57620 37961 ft 449 kts 276°
2026-04-28 19:19 -19.52277 51.51097 37960 ft 449 kts 276°
2026-04-28 19:19 -19.51206 51.44576 37964 ft 449 kts 276°
2026-04-28 19:20 -19.50126 51.38051 37966 ft 449 kts 276°
2026-04-28 19:20 -19.49048 51.31523 37991 ft 450 kts 276°
2026-04-28 19:21 -19.47971 51.25010 37990 ft 450 kts 276°
2026-04-28 19:21 -19.46887 51.18451 38001 ft 450 kts 276°
2026-04-28 19:22 -19.45982 51.13016 37997 ft 450 kts 276°
2026-04-28 19:22 -19.44708 51.05377 37990 ft 450 kts 277°
2026-04-28 19:23 -19.43619 50.98838 38002 ft 450 kts 276°
2026-04-28 19:23 -19.42529 50.92310 37996 ft 450 kts 277°
2026-04-28 19:24 -19.41435 50.85778 38002 ft 450 kts 277°
2026-04-28 19:24 -19.40338 50.79254 37997 ft 450 kts 277°
2026-04-28 19:25 -19.39237 50.72733 37984 ft 450 kts 277°
2026-04-28 19:25 -19.38135 50.66214 37985 ft 449 kts 277°
2026-04-28 19:26 -19.37033 50.59697 37976 ft 449 kts 277°
2026-04-28 19:26 -19.35929 50.53180 37983 ft 450 kts 277°
2026-04-28 19:27 -19.34829 50.46660 37991 ft 450 kts 277°
2026-04-28 19:27 -19.33717 50.40146 37994 ft 450 kts 277°
2026-04-28 19:28 -19.32603 50.33622 37985 ft 450 kts 277°
2026-04-28 19:28 -19.31489 50.27096 37988 ft 450 kts 277°
2026-04-28 19:29 -19.30551 50.21629 37986 ft 450 kts 277°
2026-04-28 19:29 -19.29250 50.14053 37981 ft 450 kts 277°
2026-04-28 19:30 -19.28128 50.07536 37991 ft 450 kts 277°
2026-04-28 19:30 -19.27004 50.01022 37993 ft 450 kts 277°
2026-04-28 19:31 -19.25874 49.94507 37983 ft 450 kts 277°
2026-04-28 19:31 -19.24741 49.87987 37983 ft 450 kts 277°
2026-04-28 19:32 -19.23609 49.81472 37991 ft 450 kts 277°
2026-04-28 19:32 -19.22471 49.74962 37997 ft 450 kts 277°
2026-04-28 19:33 -19.21333 49.68448 37993 ft 450 kts 277°
2026-04-28 19:33 -19.20197 49.61939 37992 ft 450 kts 277°
2026-04-28 19:34 -19.19056 49.55432 37978 ft 450 kts 277°
2026-04-28 19:34 -19.17918 49.48924 37982 ft 450 kts 277°
2026-04-28 19:35 -19.16772 49.42417 37977 ft 450 kts 277°
2026-04-28 19:35 -19.15624 49.35891 37979 ft 450 kts 278°
2026-04-28 19:36 -19.14469 49.29387 37974 ft 450 kts 278°
2026-04-28 19:36 -19.13498 49.23941 37978 ft 450 kts 278°
2026-04-28 19:37 -19.12538 49.18536 37989 ft 450 kts 278°
2026-04-28 19:37 -19.11186 49.10935 37989 ft 450 kts 278°
2026-04-28 19:38 -19.10027 49.04424 37997 ft 451 kts 278°
2026-04-28 19:38 -19.08868 48.97915 38005 ft 450 kts 278°
2026-04-28 19:39 -19.07704 48.91405 37942 ft 451 kts 278°
2026-04-28 19:39 -19.07115 48.88145 37688 ft 451 kts 278°
2026-04-28 19:39 -19.06529 48.84897 37314 ft 450 kts 278°
2026-04-28 19:40 -19.05939 48.81629 36502 ft 455 kts 278°
2026-04-28 19:40 -19.05347 48.78332 35676 ft 459 kts 278°
2026-04-28 19:40 -19.04753 48.75009 34762 ft 463 kts 278°
2026-04-28 19:40 -19.04150 48.71641 33758 ft 469 kts 278°
2026-04-28 19:41 -19.03537 48.68238 32640 ft 474 kts 278°
2026-04-28 19:41 -19.02916 48.64800 31479 ft 478 kts 277°
2026-04-28 19:41 -19.02288 48.61332 30299 ft 483 kts 277°
2026-04-28 19:41 -19.01656 48.57827 28955 ft 487 kts 277°
2026-04-28 19:42 -19.01022 48.54306 27648 ft 489 kts 277°
2026-04-28 19:42 -19.00378 48.50766 26376 ft 490 kts 277°
2026-04-28 19:42 -18.99739 48.47239 25487 ft 484 kts 277°
2026-04-28 19:42 -18.99458 48.43739 24738 ft 474 kts 269°
2026-04-28 19:43 -18.99381 48.40281 24020 ft 468 kts 267°
2026-04-28 19:43 -18.99367 48.36899 23257 ft 465 kts 269°
2026-04-28 19:43 -18.98825 48.33542 22410 ft 465 kts 285°
2026-04-28 19:43 -18.97627 48.30378 21610 ft 462 kts 291°
2026-04-28 19:44 -18.96365 48.27230 20804 ft 456 kts 291°
2026-04-28 19:44 -18.95145 48.24158 20032 ft 451 kts 290°
2026-04-28 19:44 -18.94077 48.21114 19297 ft 445 kts 288°
2026-04-28 19:44 -18.93025 48.18016 18515 ft 440 kts 288°
2026-04-28 19:45 -18.92007 48.14998 18339 ft 437 kts 288°
2026-04-28 19:45 -18.91021 48.11959 18230 ft 436 kts 284°
2026-04-28 19:45 -18.90538 48.08816 17666 ft 431 kts 271°
2026-04-28 19:45 -18.90462 48.05677 17196 ft 426 kts 269°
2026-04-28 19:46 -18.90404 48.02548 16956 ft 426 kts 270°
2026-04-28 19:46 -18.90321 47.99426 16707 ft 425 kts 272°
2026-04-28 19:46 -18.89968 47.96336 16474 ft 425 kts 278°
2026-04-28 19:46 -18.89401 47.93280 16231 ft 424 kts 282°
2026-04-28 19:47 -18.88706 47.90260 15997 ft 422 kts 284°
2026-04-28 19:47 -18.87966 47.87264 15761 ft 421 kts 284°
2026-04-28 19:47 -18.87238 47.84277 15520 ft 420 kts 284°
2026-04-28 19:47 -18.86541 47.81287 15283 ft 418 kts 283°
2026-04-28 19:48 -18.85891 47.78330 15058 ft 406 kts 282°
2026-04-28 19:48 -18.85292 47.75491 14823 ft 387 kts 282°
2026-04-28 19:48 -18.84732 47.72781 14603 ft 371 kts 282°
2026-04-28 19:48 -18.84192 47.70146 14381 ft 364 kts 282°
2026-04-28 19:49 -18.83657 47.67544 14155 ft 358 kts 282°
2026-04-28 19:49 -18.83133 47.65022 13928 ft 346 kts 283°
2026-04-28 19:49 -18.82618 47.62588 13674 ft 335 kts 283°
2026-04-28 19:49 -18.82117 47.60230 13422 ft 325 kts 282°
2026-04-28 19:50 -18.81148 47.55688 12918 ft 310 kts 283°
2026-04-28 19:50 -18.80679 47.53496 12669 ft 303 kts 283°
2026-04-28 19:50 -18.80229 47.51360 12535 ft 294 kts 281°
2026-04-28 19:51 -18.79864 47.49272 12411 ft 285 kts 279°
2026-04-28 19:51 -18.79555 47.47236 12289 ft 277 kts 278°
2026-04-28 19:51 -18.79269 47.45254 12165 ft 270 kts 278°
2026-04-28 19:51 -18.78991 47.43319 12041 ft 263 kts 278°
2026-04-28 19:52 -18.78715 47.41426 11854 ft 260 kts 278°
2026-04-28 19:52 -18.78436 47.39552 11629 ft 258 kts 278°
2026-04-28 19:52 -18.78160 47.37708 11503 ft 252 kts 279°
2026-04-28 19:52 -18.77888 47.35897 11218 ft 252 kts 279°
2026-04-28 19:53 -18.77605 47.34013 10656 ft 265 kts 279°
2026-04-28 19:53 -18.77103 47.32150 10410 ft 263 kts 293°
2026-04-28 19:53 -18.76178 47.30519 10261 ft 257 kts 308°
2026-04-28 19:53 -18.74926 47.29215 10116 ft 248 kts 321°
2026-04-28 19:54 -18.73550 47.28130 9695 ft 246 kts 323°
2026-04-28 19:54 -18.72189 47.27061 9317 ft 242 kts 322°
2026-04-28 19:54 -18.70893 47.25973 9035 ft 232 kts 312°
2026-04-28 19:54 -18.70149 47.24562 8911 ft 213 kts 283°
2026-04-28 19:55 -18.70128 47.23086 8816 ft 193 kts 257°
2026-04-28 19:55 -18.70682 47.21842 8706 ft 186 kts 232°
2026-04-28 19:55 -18.71654 47.20968 8613 ft 185 kts 208°
2026-04-28 19:55 -18.72886 47.20596 8508 ft 186 kts 184°
2026-04-28 19:56 -18.74156 47.20796 8342 ft 186 kts 159°
2026-04-28 19:56 -18.75239 47.21542 8202 ft 187 kts 135°
2026-04-28 19:56 -18.75923 47.22693 8093 ft 187 kts 110°
2026-04-28 19:56 -18.76166 47.24039 7991 ft 187 kts 97°
2026-04-28 19:57 -18.76335 47.25377 7905 ft 179 kts 98°
2026-04-28 19:57 -18.76516 47.26653 7735 ft 174 kts 99°
2026-04-28 19:57 -18.76699 47.27889 7537 ft 167 kts 99°
2026-04-28 19:57 -18.76878 47.29087 7339 ft 164 kts 99°
2026-04-28 19:58 -18.77055 47.30270 7138 ft 163 kts 99°
2026-04-28 19:58 -18.77232 47.31448 6934 ft 162 kts 99°
2026-04-28 19:58 -18.77408 47.32620 6738 ft 161 kts 99°
2026-04-28 19:58 -18.77583 47.33785 6544 ft 160 kts 99°
2026-04-28 19:59 -18.77757 47.34947 6327 ft 159 kts 99°
2026-04-28 19:59 -18.77928 47.36093 6137 ft 158 kts 99°
2026-04-28 19:59 -18.78097 47.37236 5938 ft 157 kts 99°
2026-04-28 19:59 -18.78265 47.38367 5752 ft 155 kts 99°
2026-04-28 20:00 -18.78433 47.39487 5554 ft 155 kts 99°
2026-04-28 20:00 -18.78597 47.40608 5363 ft 154 kts 99°
2026-04-28 20:00 -18.78758 47.41712 5175 ft 148 kts 99°
2026-04-28 20:00 -18.78904 47.42731 4947 ft 135 kts 98°
2026-04-28 20:01 -18.79060 47.43687 4738 ft 130 kts 100°
2026-04-28 20:01 -18.79196 47.44623 4569 ft 129 kts 99°
2026-04-28 20:01 -18.79349 47.45562 4408 ft 130 kts 99°
2026-04-28 20:01 -18.79487 47.46506 4216 ft 131 kts 100°
2026-04-28 20:02 -18.79617 47.47384 4158 ft 108 kts 100°
2026-04-28 20:02 -18.79653 47.47636 4153 ft 1 kts 100°
2026-04-28 20:02 -18.79644 47.47638 4153 ft 2 kts 103°
2026-04-28 20:02 -18.79629 47.47642 4153 ft 3 kts 109°
2026-04-28 20:03 -18.79622 47.47645 4153 ft 3 kts 106°